Regional Weather Roundup
Issued by NWS

Home | Current Version | Previous Version | Graphics & Text | Print | Product List | Glossary On
Versions: 1 2 3 4 5 6 7 8 9 10 11 12 13 14 15 16 17 18 19 20 21 22 23 24 25 26 27
000
ASUS45 KSLC 241110
RWRUT

UTAH REGIONAL WEATHER ROUNDUP
NATIONAL WEATHER SERVICE SALT LAKE CITY UT
400 AM MST FRI FEB 24 2017

UTZ001>011-023>025-241200-

NORTHERN UTAH

CITY           SKY/WX    TMP DP  RH WIND       PRES   REMARKS
BRIGHAM CITY     N/A     26  23  87 CALM      29.95R
HILL AFB       LGT SNOW  23  21  93 CALM      29.92R FOG
LOGAN          LGT SNOW  26  23  88 W5        29.92S FOG     WCI  20
OGDEN          LGT SNOW  23  22  96 SE3       29.93R FOG
SALT LAKE CITY FLURRIES  27  24  89 S3        29.94S
TOOELE VALLEY  CLOUDY    28  19  69 NW10      29.96R WCI  19
WENDOVER       PTCLDY    27   9  46 NW15      29.97R WCI  15
HEBER CITY     PTCLDY     9   5  85 CALM      29.86S
WEST JORDAN    CLOUDY    28  28 100 CALM      29.94S

$$

UTZ011>015-024>027-241200-

CENTRAL/NORTHEAST UTAH

CITY           SKY/WX    TMP DP  RH WIND       PRES   REMARKS
PROVO AIRPORT  CLOUDY    24  21  88 SE6       29.95S WCI  17
MOAB/CANYONLAN CLOUDY    28  16  60 W8        29.84S WCI  20
DELTA          CLOUDY    19  19 100 CALM      29.95S VSB<1/4
PRICE          PTCLDY    21  12  68 N3        29.82F
RICHFIELD      PTCLDY    21  21 100 NW5       29.94S WCI  15
ROOSEVELT      CLOUDY    21  19  93 W6        29.85R WCI  14
VERNAL         CLOUDY    22  19  89 CALM      29.83R

$$

UTZ013>016-019>022-027-241200-

SOUTHERN UTAH

CITY           SKY/WX    TMP DP  RH WIND       PRES   REMARKS
BRYCE CANYON   FLURRIES  15  10  80 W10       29.83S WCI   2
CEDAR CITY     MOCLDY    24  16  71 W7        29.91S WCI  16
MILFORD        FLURRIES  24  22  91 N8        29.93S WCI  15
ST GEORGE      MOSUNNY   37  18  46 W12       30.00S WCI  29
HANKSVILLE     MOCLDY    27  10  50 CALM      29.88S
KANAB          CLEAR     21  18  86 NE1       29.97S
BLANDING       PTCLDY    24  17  74 W3        29.91R

$$

REGIONAL REPORTS     COLORADO/ARIZONA

CITY           SKY/WX    TMP DP  RH WIND       PRES   REMARKS
CRAIG, CO      CLOUDY    18  11  74 SW6       29.79S WCI  10
GRAND JUNCTION PTCLDY    23  21  92 NE8       29.83R WCI  14
RIFLE, CO      CLOUDY    24  19  81 W5        29.81S WCI  18
MONTROSE, CO   CLOUDY    22  13  68 E3        29.83S
CORTEZ, CO     CLOUDY    23  19  85 CALM      29.84S
COLORADO CITY    N/A     30  19  64 W5        29.97S WCI  25
PAGE, AZ       CLEAR     33   7  33 W3        29.91R
GRAND CANYON   CLEAR     18  10  71 W3        29.93S
KINGMAN, AZ    CLEAR     27   4  37 CALM      30.00F
FLAGSTAFF, AZ  CLEAR     20   5  52 W9        29.91S WCI   9

$$

REGIONAL REPORTS    NEVADA/IDAHO/WYOMING

CITY           SKY/WX    TMP DP  RH WIND       PRES   REMARKS
LAS VEGAS, NV  CLEAR     40  16  37 S3        30.03R
ELY, NY        CLOUDY    16  10  77 CALM      29.95S
ELKO, NV       CLOUDY    22  15  75 S3        30.00S
POCATELLO, ID  LGT SNOW  22  19  89 SW20      29.91R FOG     WCI   7
BURLEY, ID     LGT SNOW  25  16  68 W23G29    29.92S WCI  10
FORT BRIDGER,  LGT SNOW  15  15 100 W9        29.82R WCI   3
EVANSTON, WY   LGT SNOW  14   9  80 W9        29.80R WCI   2
ROCK SPRINGS,  CLOUDY    13   7  77 CALM      29.79R

$$




USA.gov is the U.S. government's official web portal to all federal, state and local government web resources and services.